Regional Weather Roundup
Issued by NWS

Home | Current Version | Previous Version | Text Only | Print | Product List | Glossary Off
Versions: 1 2 3 4 5 6 7 8 9 10 11 12 13 14 15 16 17 18 19 20 21 22 23 24 25 26 27 28 29 30 31 32 33 34 35 36 37 38 39 40 41 42 43 44 45 46 47 48 49 50

000
ASUS43 KLOT 211510
RWRIL

ILLINOIS REGIONAL WEATHER ROUNDUP
NATIONAL WEATHER SERVICE CHICAGO/ROMEOVILLE IL
1000 AM CDT SUN SEP 21 2014

NOTE: "FAIR" INDICATES FEW OR NO CLOUDS BELOW 12,000 FEET WITH NO
SIGNIFICANT WEATHER AND/OR OBSTRUCTIONS TO VISIBILITY.

* THESE STATIONS ARE NOT UNDER NWS QUALITY CONTROL. THEY ALSO MAY NOT
  REPORT WEATHER SUCH AS PRECIPITATION OR FOG.

ILZ001-002-007-009-015-016-024-211600-
NORTHWEST ILLINOIS

CITY           SKY/WX    TMP DP  RH WIND       PRES   REMARKS
MOLINE         SUNNY     63  50  62 NW20G29   29.98R
STERLING*      CLOUDY    59  50  72 N13G20    29.95R
SAVANNA*       PTSUNNY   60  49  67 NW14      29.96R
$$

ILZ003-004-008-010-011-017-018-211600-
NORTH CENTRAL ILLINOIS

CITY           SKY/WX    TMP DP  RH WIND       PRES   REMARKS
ROCKFORD       CLOUDY    59  49  69 NW18G31   29.92R
ROCHELLE*      CLOUDY    58  49  70 NW17G31   29.91R
DE KALB*       CLOUDY    56  50  78 NW14G28   29.89R
PERU*          PTSUNNY   62  51  67 NW22G33   29.92R
$$

ILZ005-006-012>014-019>023-211600-
NORTHEAST ILLINOIS

CITY           SKY/WX    TMP DP  RH WIND       PRES   REMARKS
CHICAGO-OHARE  CLOUDY    61  50  67 NW16G24   29.85R
CHICAGO-MIDWAY PTSUNNY   62  51  67 NW16G26   29.84R
AURORA         PTSUNNY   61  50  67 NW20G29   29.88R
LANSING*       PTSUNNY   62  51  66 NW17G25   29.85R
JOLIET*        PTSUNNY   61  49  64 NW8G21    29.88R
WAUKEGAN       CLOUDY    57  50  77 NW15G28   29.83R
DUPAGE AIRPORT CLOUDY    59  50  72 NW16G26   29.87R
KANKAKEE*      PTSUNNY   63  52  67 W14G21    29.89R
WHEELING       CLOUDY    60  50  69 NW13      29.86R
MORRIS*        PTSUNNY   63  52  68 NW15G24   29.89R
ROMEOVILLE*    PTSUNNY   61  50  66 NW16G26   29.87S
NORTHERLY ISL    N/A     62  49  62 W15         N/A
$$

LMZ740>746-211600-
SOUTHERN LAKE MICHIGAN

STATION/POSITION SKY/WX   TEMP    WIND        PRES    VSBY  WAVE
                          AIR SEA DIR/SP/G                  HT/PER
                          (F)     (DEG/KT/KT) (MB)    (MI)  (FT/S)
SOUTHERN BUOY              59 63  290/ 25/ 31 1007.6R         6/ 6
WAUKEGAN HARBOR            59     310/ 20/ 26   N/A
HARRISON CRIB              60     300/ 21/ 28   N/A
BURNHAM HARBOR             61     280/ 12/ 19   N/A
CALUMET HARBOR             62     280/ 10/ 18 1009.2R
MICHIGAN CITY              60     270/ 27/ 31   N/A
MICHIGAN CITY 6N           61 65  300/ 19/ 27   N/A           7/ 5
ST. JOSEPH                 61 65  280/ 23/ 31   N/A           9/ 6
$$

ILZ025>027-034>036-040-047-049-050-058-095>099-211600-
WEST-CENTRAL ILLINOIS

CITY           SKY/WX    TMP DP  RH WIND       PRES   REMARKS
QUINCY         SUNNY     65  51  60 NW17G24   30.05R
GALESBURG*     SUNNY     64  51  64 W18G29    29.98R
MACOMB*        SUNNY     64  52  65 W18G25    30.03R
JACKSONVILLE*  SUNNY     69  56  61 NW10G17   30.03R
PITTSFIELD*    SUNNY     68  52  56 W10       30.05R
$$

ILZ028>032-037-038-041>044-048-051>054-059>061-211600-
CENTRAL ILLINOIS

CITY           SKY/WX    TMP DP  RH WIND       PRES   REMARKS
PONTIAC        SUNNY     66  52  59 W20G25    29.91R
DECATUR        SUNNY     66  54  65 W18G25    29.97R
PEORIA         SUNNY     67  52  58 NW9       29.96R
LACON*         SUNNY     65  49  57 NW15G23   29.93R
LINCOLN*       SUNNY     68  54  61 NW7       29.95R
SPRINGFIELD    SUNNY     69  54  58 W13G23    29.99R
TAYLORVILLE    SUNNY     68  52  56 NW12G21   30.00R
$$

ILZ033-039-045-046-055>057-062-063-211600-
EAST-CENTRAL ILLINOIS

CITY           SKY/WX    TMP DP  RH WIND       PRES   REMARKS
CHAMPAIGN      SUNNY     65  56  72 W14G21    29.94S
DANVILLE*      SUNNY     66  55  67 W15G23    29.89S
RANTOUL*       SUNNY     68  53  58 W15G23    29.93R
MATTOON        SUNNY     67  54  63 W15       29.96R
PARIS*         SUNNY     68  55  63 W12G18    29.95S
$$

ILZ079-100>102-211600-
SOUTHWEST ILLINOIS

CITY           SKY/WX    TMP DP  RH WIND       PRES   REMARKS
ALTON          SUNNY     68  55  64 W9        30.03S
BELLEVILLE     SUNNY     71  55  55 W10       30.03R
CAHOKIA*       SUNNY     72  50  45 NW10      30.05R
SPARTA*        SUNNY     70  54  57 NW10      30.05R
$$

ILZ064>066-069>071-074>076-080>082-084>086-088>090-092>094-211600-
SOUTH-CENTRAL ILLINOIS

CITY           SKY/WX    TMP DP  RH WIND       PRES   REMARKS
CARBONDALE     SUNNY     72  51  47 N10G17    30.04R
CAIRO*         MOSUNNY   77  70  80 NW8       30.02R
EFFINGHAM*     SUNNY     70  50  48 W7        29.99S
MARION         SUNNY     72  59  64 NW14      30.04
MT. VERNON     SUNNY     70  55  60 NW5       30.03R
CENTRALIA*     SUNNY     70  52  52 N9        30.02R
SALEM*         SUNNY     71  56  60 NW7       30.02R
METROPOLIS*    PTSUNNY   76  71  84 NW7       30.00R
$$

ILZ067-068-072-073-078-083-087-091-211600-
SOUTHEAST ILLINOIS

CITY           SKY/WX    TMP DP  RH WIND       PRES   REMARKS
LAWRENCEVILLE  SUNNY     71  56  58 NW15      29.97R
FLORA*         SUNNY     70  51  51 NW9       30.00R
FAIRFIELD*     SUNNY    N/A N/A N/A NW7       30.00R
HARRISBURG*    SUNNY     74  66  76 N10       30.01R
ROBINSON*      SUNNY     71  57  62 NW10      29.97R
CARMI*         SUNNY     74  58  56 NW14G20   30.00R
$$

ABBREVIATIONS USED IN REMARKS
   TC - TEMPERATURE IN CELSIUS
  WCI - WIND CHILL INDEX
   HX - HEAT INDEX
  VSB - VISIBILITY
$$




USA.gov is the U.S. government's official web portal to all federal, state and local government web resources and services.